Location: Alice Springs
(23.6980°S, 133.8807°E)
Time: 12:23:13
(UTC+09:30)

ISS - Visible Passes

Search period start: 17 June 2021 00:00
Search period end: 27 June 2021 00:00
Orbit: 417 x 422 km, 51.6° (Epoch: 16 June)

Date Brightness Start Highest point End Pass type
(mag) Time Alt. Az. Time Alt. Az. Time Alt. Az.
17 Jun -3.3 18:35:06 10° NNW 18:38:20 45° NE 18:40:55 15° ESE visible
18 Jun -1.5 19:25:12 10° W 19:27:43 19° SW 19:28:51 17° SSW visible
19 Jun -2.4 18:37:04 10° WNW 18:40:12 36° SW 18:43:24 10° SSE visible
21 Jun -0.9 18:41:26 10° SW 18:42:21 11° SW 18:43:16 10° SSW visible
